Regional Weather Roundup
Issued by NWS

Home | Current Version | Previous Version | Text Only | Print | Product List | Glossary On
Versions: 1 2 3 4 5 6 7 8 9 10 11 12 13 14 15 16 17 18 19 20 21 22 23 24 25 26 27 28 29 30 31 32 33 34 35 36 37 38 39 40 41 42 43 44 45 46 47 48 49 50
000
ASUS43 KLMK 211702
RWRKY
KENTUCKY REGIONAL WEATHER ROUNDUP
NATIONAL WEATHER SERVICE LOUISVILLE KY
1200 PM EST SUN JAN 21 2018

NOTE "FAIR" INDICATES FEW OR NO CLOUDS BELOW 12,000 FEET
WITH NO SIGNIFICANT WEATHER AND/OR OBSTRUCTIONS TO VISIBILITY.

KYZ001>023-026-027-061>063-070>075-211800-
WESTERN AND SOUTH CENTRAL KENTUCKY

CITY           SKY/WX    TMP DP  RH WIND       PRES   REMARKS
PADUCAH        CLOUDY    55  49  80 S12G20    30.07F
HENDERSON      CLOUDY    50  46  86 S13       30.08F
OWENSBORO      CLOUDY    46  42  86 S9        30.10F
HOPKINSVILLE   CLOUDY    57  49  74 S13       30.12F
BOWLING GREEN  CLOUDY    59  48  67 SW10      30.14F
GLASGOW        NOT AVBL
$$

KYZ024-025-028>034-038-045-046-053-211800-
NORTH CENTRAL KENTUCKY

CITY           SKY/WX    TMP DP  RH WIND       PRES   REMARKS
LOUISVILLE/SDF CLOUDY    56  47  71 SW13      30.11F
LOUISVILLE/LOU CLOUDY    55  48  77 S10G17    30.13F
FORT KNOX      CLOUDY    53  47  81 S10       30.12S
$$

KYZ035>037-039>044-047>052-055>060-089>105-211800-
NORTHEAST KENTUCKY

CITY           SKY/WX    TMP DP  RH WIND       PRES   REMARKS
LEXINGTON      CLOUDY    57  46  66 SW13      30.15F
COVINGTON      CLOUDY    53  45  74 S10       30.09F
FRANKFORT      CLOUDY    53  44  71 S14       30.13F
$$

KYZ054-064>069-076>088-106>120-211800-
SOUTHEAST KENTUCKY

CITY           SKY/WX    TMP DP  RH WIND       PRES   REMARKS
JACKSON        CLOUDY    54  45  71 SW6       30.19F
LONDON         CLOUDY    56  42  59 S14G23    30.20F
SOMERSET       NOT AVBL
MIDDLESBORO    CLOUDY    53  38  56 CALM      30.25F
MONTICELLO     CLOUDY    59  46  62 SW14G24   30.21F
$$





USA.gov is the U.S. government's official web portal to all federal, state and local government web resources and services.